sat.trackr.live / text

‹ back to catalog

ONEWEB-0263

NORAD 48981 · 2021-060Q

PAYLOAD ACTIVE UNKNOWN

§ Identity

Operator
Country
UK
Launch date
2021-07-01
Launch site
VOSTO
Launch vehicle
Mass (kg)
RCS (m²)

Purposes: comms

External: N2YO · Heavens-Above · Gunter

§ Orbital elements

Epoch: 2026-05-24T15:56:12.423552Z

Period
109.37 min
Inclination
87.9105°
Eccentricity
0.0001715
Mean motion
13.16593323 rev/d
Perigee alt
1,196.5 km
Apogee alt
1,199.1 km
Semi-major
7,575.9 km
B*
-2.2511e-4
RAAN
233.4515°
Arg perigee
94.8433°
Mean anomaly
265.2893°
Rev number
23,649

§ Raw data

ONEWEB-02631 48981U 21060Q   26144.66403268 -.00000073  00000+0 -22511-3 0  99962 48981  87.9105 233.4515 0001715  94.8433 265.2893 13.16593323236495

JSON: /api/v1/satellites/48981 · /tle

For live sub-satellite position, see the globe view (requires WebGL).

§ Visibility from observer

Set your observer location to see the next 7 days of passes ≥ 10°. The values pass through the URL so the page stays shareable.

No JS? Fill the form by hand. The geolocation button needs JavaScript.